星链-30036 (STARLINK-30036 )

导读

STARLINK-30036是美国SpaceX星链互联网卫星星座的一员,于北京时间2023年5月19日发射入轨,归属发射国家美国。它延续星链星座低轨布局设计,承担为全球提供高速低延迟互联网接入服务的任务,填补偏远地区网络覆盖空白,助力全球互联互通。

Basic Information
目录编号:
56692
目录名称:
STARLINK-30036
国际标识:
2023-067E
轨道中心:
EARTH
卫星名称:
星链-30036
卫星全名:
星链-30036 (STARLINK-30036 )
卫星状态:
在轨 (已飞行1126 天)
发射日期:
2023-05-19 UTC
国别 :
美国 (US)
星等 :
--
Orbit Information
数据来源 国际轨道数据
星历时间: 2026-06-18T09:51:12+0800
13小时前
查看轨道信息
半长轴: 6861.189km
偏心率: 0.0001569
轨道倾角: 43.002°
近地点辐角 261.550°
升交点赤经 74.292°
平近点角 98.517°
近地点: 481.975km
远地点: 484.129km
周期: 94.267分钟
每日圈数: 15.275792
Detailed Information
固有亮度:
5
最大亮度:
0.3
卫星平台:
Starlink v2.0 mini
覆盖范围:
全球
运营商:
太空探索技术公司
运营商所在国:
美国
制造商(研发单位):
太空探索技术公司
制造商所在国:
美国
使用方式:
暂无
Satellite Introduction
星链(Starlink)计划是由太空探索技术公司(SpaceX)提出的一个巨型低轨卫星互联网星座项目,计划在2019年至2024年间在太空搭建由约1.2万颗卫星组成的“星链”网络,其中1584颗将部署在地球上空550千米处的近地轨道,并从2020年开始工作。该卫星仍在工作。
2D Orbit Map
3D Orbit Map
Orbit Altitude Analysis Chart
Orbit Inclination Analysis Chart
Orbit Comprehensive Analysis Chart
View Comprehensive Chart